Regional Weather Roundup
Issued by NWS Boston, MA

Home | Current Version | Previous Version | Text Only | Print | Product List | Glossary On
Versions: 1 2 3 4 5 6 7 8 9 10 11 12 13 14 15 16 17 18 19 20 21 22 23 24 25 26 27 28 29 30 31 32 33 34 35 36 37 38 39 40 41 42 43 44 45 46 47 48 49 50
000
ASUS41 KBOX 160210
RWRBOX

REGIONAL WEATHER ROUNDUP
NATIONAL WEATHER SERVICE TAUNTON MA
1000 PM EDT MON SEP 15 2014

NOTE:  "FAIR" INDICATES FEW OR NO CLOUDS BELOW 12,000 FEET WITH NO
SIGNIFICANT WEATHER AND/OR OBSTRUCTIONS TO VISIBILITY.  THE FOLLOWING
OBSERVATION LOCATIONS DO NOT REPORT PRESENT WEATHER...PROVINCETOWN...
SMITHFIELD...BLOCK ISLAND...KEENE...AND OXFORD.

MAZALL-160300-
EASTERN MASSACHUSETTS

CITY           SKY/WX    TMP DP  RH WIND       PRES   REMARKS
BOSTON         PTCLDY    57  48  72 S9        30.12F
BEVERLY        PTCLDY    52  46  80 CALM      30.11F
LAWRENCE       PTCLDY    55  48  77 S5        30.14F
BEDFORD        PTCLDY    49  46  90 NW3       30.11S
BLUE HILL        N/A     53  46  77 SE12      30.11F
NORWOOD        CLEAR     47  45  93 CALM      30.12F
MARSHFIELD     NOT AVBL
PLYMOUTH       MOCLDY    53  46  77 CALM      30.13F
TAUNTON        CLEAR     47  45  93 CALM      30.13F
NEW BEDFORD    CLEAR     51  48  89 CALM      30.12F
$$

MAZALL-160300-
CAPE COD AND THE ISLANDS

CITY           SKY/WX    TMP DP  RH WIND       PRES   REMARKS
FALMOUTH       MOCLDY    54  45  71 E7        30.13F
HYANNIS        PTCLDY    51  46  83 E3        30.13S
CHATHAM        MOCLDY    53  47  79 CALM      30.15S
PROVINCETOWN   CLOUDY    57  46  67 SE3       30.14F
NANTUCKET      CLOUDY    59  50  72 E5        30.14S
MARTHAS VNYRD  PTCLDY    46  42  86 CALM      30.13F
$$

MAZALL-160300-
CENTRAL AND WESTERN MASSACHUSETTS

CITY           SKY/WX    TMP DP  RH WIND       PRES   REMARKS
WORCESTER      PTCLDY    52  43  71 CALM      30.13S
FITCHBURG      MOCLDY    52  48  86 NW3       30.14S
ORANGE         MOCLDY    51  49  92 CALM      30.11F
SPRINGFIELD    CLOUDY    51  49  90 N2        30.10F
WESTFIELD      CLOUDY    54  49  83 CALM      30.11F
NORTH ADAMS    CLOUDY    50  47  89 CALM      30.11F
PITTSFIELD     CLOUDY    50  48  93 CALM      30.10F
$$

RIZALL-160300-
RHODE ISLAND

CITY           SKY/WX    TMP DP  RH WIND       PRES   REMARKS
PROVIDENCE     PTCLDY    56  48  74 W6        30.13F
NEWPORT        CLEAR     56  47  71 CALM      30.12F
BLOCK ISLAND   CLEAR     57  46  67 SW5       30.12F
SMITHFIELD     CLEAR     52  41  66 E7        30.12F
WESTERLY       PTCLDY    53  49  86 CALM      30.13S
$$

CTZALL-160300-
CONNECTICUT

CITY           SKY/WX    TMP DP  RH WIND       PRES   REMARKS
BRADLEY INTL   MOCLDY    56  47  71 CALM      30.09F
HARTFORD       MOCLDY    55  51  86 SE10      30.10F
BRIDGEPORT     MOCLDY    65  51  60 S7        30.10F
DANBURY        CLOUDY    54  49  83 CALM      30.12S
GROTON         PTCLDY    53  51  93 N3        30.11F
NEW HAVEN      PTCLDY    58  50  75 CALM      30.10F
CHESTER        FAIR      54  48  82 CALM      30.12S
MERIDEN        MOCLDY    52  47  83 CALM      30.11F
WILLIMANTIC    MOCLDY    52  49  89 N3        30.13F
OXFORD         MOCLDY    54  45  71 E3        30.11F
$$

MEZ002-015-021-024-NHZ003-005-008-011-012-014-VTZ005-008-160300-
NORTHERN NEW ENGLAND

CITY           SKY/WX    TMP DP  RH WIND       PRES   REMARKS
PORTLAND ME    MOCLDY    53  48  83 SW3       30.11F
BANGOR ME      PTCLDY    50  45  83 S5        30.10S
CONCORD NH     MOCLDY    51  47  86 CALM      30.11S
MANCHESTER NH  MOCLDY    56  46  69 CALM      30.10F
NASHUA NH      PTCLDY    52  48  86 CALM      30.13S
PORTSMOUTH NH  CLOUDY    54  48  81 S6        30.11F
JAFFREY NH     MOCLDY    49  47  93 CALM      30.13S
KEENE NH       MOCLDY    52  43  71 CALM      30.12F
BURLINGTON VT  CLOUDY    58  43  57 S7        30.07F
MT. WASHINGTON CLOUDY    32  30  93 W17G26      N/A  WCI  21
$$

NYZ052-076-160300-
EASTERN NEW YORK

CITY           SKY/WX    TMP DP  RH WIND       PRES   REMARKS
ALBANY         CLOUDY    56  46  69 CALM      30.09F
NEW YORK CITY  MOCLDY    65  51  60 S9        30.09F
$$

ANZALL-160300-
MARINE OBSERVATIONS

STATION/POSITION TIME  TEMP    WIND        PRES    VSBY  WAVE
                       AIR SEA DIR/SP/G                  HT/PER
                 (UTC) (F)     (DEG/KT/KT) (MB)    (MI)  (FT/S)
BOSTON BUOY      0150   60 61  140/  6/  8 1020.4F         1/ 9
BUZZARDS BAY     0100          240/ 10/ 11 1021.1R
NANTUCKET SOUND  0150   61 66  110/  8/ 12 1020.3S         1
MASS BAY-STELLWA 0104   60 60  170/  8/ 10   N/A    1 7/8  2/11
ISLE OF SHOALS   0200   58     180/ 13/ 14 1019.4F
S OF BLOCK IS    0108      66                N/A           2/13
$$

......................KEY.........................
  SKY/WX - SKY CONDITION/PRESENT WEATHER
  TMP    - TEMPERATURE IN FAHRENHEIT
  DWPT   - DEWPOINT IN FAHRENHEIT
  RH     - RELATIVE HUMIDITY IN PERCENT
  WIND   - DIRECTION AND SPEED IN MPH
  PRES   - MEAN SEA LEVEL PRESSURE IN INCHES OF HG
  WCI    - WIND CHILL INDEX
  VSB    - VISIBILITY IN MILES
  HX     - HEAT INDEX
  TC     - TEMPERATURE IN CELSIUS
  VRB    - VARIABLE WIND DIRECTION
  N/A    - NOT AVAILABLE


USA.gov is the U.S. government's official web portal to all federal, state and local government web resources and services.